Regional Weather Roundup
Issued by NWS

Home | Current Version | Previous Version | Graphics & Text | Print | Product List | Glossary On
Versions: 1 2 3 4 5 6 7 8 9 10 11 12 13 14 15 16 17 18 19 20 21 22 23 24 25 26 27 28 29 30 31 32 33 34 35 36 37 38 39 40 41 42 43 44 45 46 47 48 49 50
722
ASUS43 KFSD 031510
RWRSD

WEATHER ROUNDUP FOR SOUTH DAKOTA
NATIONAL WEATHER SERVICE SIOUX FALLS SD
900 AM CST SAT DEC 03 2016

NOTE: "FAIR" INDICATES FEW OR NO CLOUDS BELOW 12,000 FEET WITH NO
SIGNIFICANT WEATHER AND/OR OBSTRUCTIONS TO VISIBILITY.


SDZ001>005-009-010-012>017-031600-
NORTHWEST AND NORTH CENTRAL SOUTH DAKOTA

CITY           SKY/WX    TMP DP  RH WIND       PRES   REMARKS
BUFFALO          N/A     17  14  88 S5        29.81S WCI  10
FAITH            N/A     18  15  88 S16       29.90F WCI   3
MOBRIDGE       MOCLDY    27  22  81 S16       29.97F WCI  15
$$

SDZ012>016-024>037-041>051-057-063-072>074-031600-
SOUTHWEST AND SOUTH CENTRAL SOUTH DAKOTA

CITY           SKY/WX    TMP DP  RH WIND       PRES   REMARKS
RAPID CTY ARPT CLEAR     19  14  81 NE3       29.89F
PIERRE         CLOUDY    27  24  89 SE15      30.02F WCI  15
CUSTER         CLEAR     19  11  70 W12       29.82F WCI   7
ELLSWORTH AFB  CLEAR     20  17  88 SW5       29.88S WCI  14
PHILIP         CLEAR     27  24  89 VRB6      29.96F WCI  20
PINE RIDGE     CLEAR     26  18  71 S14       29.95F WCI  14
SPEARFISH      FAIR      23  10  58 S6        29.86F WCI  16
WINNER         CLOUDY    35  28  75 S10       30.07F WCI  27
$$

SDZ004>011-016>023-039-040-031600-
NORTHEAST SOUTH DAKOTA

CITY           SKY/WX    TMP DP  RH WIND       PRES   REMARKS
ABERDEEN       CLEAR     26  22  84 SE12      30.12F WCI  16
WATERTOWN      CLEAR     25  21  85 SE9       30.14F WCI  15
BROOKINGS      CLEAR     27  24  89 SE14      30.16F WCI  16
SISSETON         N/A     26  21  81 SE10      30.18F WCI  16
$$

SDZ017-020-022-023-036>040-048>070-031600-
SOUTHEAST SOUTH DAKOTA

CITY           SKY/WX    TMP DP  RH WIND       PRES   REMARKS
SIOUX FALLS    MOSUNNY   30  28  92 SE10      30.19F WCI  21
HURON          CLOUDY    28  26  92 S12       30.13F WCI  18
CHAMBERLAIN    CLOUDY    31  31 100 CALM      30.10S
MITCHELL       CLOUDY    28  26  92 SE9       30.15F WCI  19
YANKTON        CLOUDY    27  25  93 SE7       30.19S WCI  19
$$

ABBREVIATIONS USED IN REMARKS
   TC - TEMPERATURE IN CELSIUS
  WCI - WIND CHILL INDEX
   HX - HEAT INDEX
  VSB - VISIBILITY





USA.gov is the U.S. government's official web portal to all federal, state and local government web resources and services.